Location: Madrid
(40.4167°N, 3.7036°W)
Time: 20:10:02
(UTC+00:00)

ISS - Pass Details

Date: 07 July 2025
Orbit: 413 x 417 km, 51.6° (Epoch: 13 July)

Event Time Altitude Azimuth Distance (km) Brightness Sun altitude
Rises 21:32:01 0° 232° (SW) 2,337 0.1 -16.0°
Reaches altitude 10° 21:34:06 10° 233° (SW) 1,479 -1.0 -16.2°
Maximum altitude 21:37:25 88° 320° (NW) 418 -3.9 -16.6°
Drops below altitude 10° 21:40:46 10° 53° (NE) 1,490 -1.0 -17.0°
Sets 21:42:52 0° 54° (NE) 2,357 0.0 -17.3°
